Find Local Weather

World > North America > United States > Florida

Port Saint Lucie, Florida Regional Weather

Lat: 27.28N, Lon: 80.35W
Wx Zone: FLZ059
Warning FLW WEATHER ALERT - (More Info. Click Here) Warning
Feedback
Expires:201807231800;;935575
ASUS42 KTBW 231717
RWRFL 
FLORIDA REGIONAL WEATHER ROUNDUP
NATIONAL WEATHER SERVICE TAMPA BAY RUSKIN FL
100 PM EDT MON JUL 23 2018

NOTE: "FAIR" INDICATES FEW OR NO CLOUDS BELOW 12,000 FEET WITH NO
SIGNIFICANT WEATHER AND/OR OBSTRUCTIONS TO VISIBILITY.


FLZ041-047-054-059-064-141-147-231800-
EAST CENTRAL FLORIDA
  
CITY           SKY/WX    TMP DP  RH WIND       PRES   REMARKS
ORMOND BEACH   MOSUNNY   84  72  65 SW8       29.84S                  
DAYTONA BEACH  PTSUNNY   86  74  67 SW10      29.84S                  
DELAND         CLOUDY    86  72  62 SW8       29.83S                  
NEW SMYRNA BEA MOSUNNY   88  72  58 W9G17     29.84F                  
TITUSVILLE     PTSUNNY   88  75  66 S8        29.85F HX  97           
CAPE CANAVERAL FAIR      88  74  63 SW10      29.82F HX  97           
PATRICK AFB    FAIR      89  75  63 SW10      29.83F HX 100           
MELBOURNE      FAIR      92  75  57 SW18      29.83F HX 103           
VERO BEACH     FAIR      92  74  55 SW13G23   29.85F HX 101           
FT PIERCE      FAIR      91  76  61 S14       29.85F HX 103           
STUART         MOSUNNY   91  73  55 SW14G21   29.89F HX 100           

STATION/POSITION SKY/WX   TEMP    WIND        PRES    WAVE   SWELL
                          AIR SEA DIR/SP/G            HT/PER HT/PER
                          (F)     (DEG/KT/KT) (MB)    (FT/S) (FT/S)
28.5N   80.2W              81     210/ 10/ 14 1010.8F   4/ 6   3/ 6
28.9N   78.5W              83 84  200/ 19/ 25 1011.5F   6/ 6
TRIDENT PIER               85 82  200/  9/ 16 1012.0F
27.5N   80.2W                 83                N/A     2/ 3

$$

SKY/WX - Weather  TMP - Temperature  DP - Dewpoint  RH - Relative Humidity
WIND - Wind Direction/Speed PRES - Barometric Pressure